Location: Heilwood
(40.6210°N, 78.9150°W)
Time: 11:10:22

BREEZE-M DEB (TANK) - Visible Passes

Search period start: 26 October 2016 00:00
Search period end: 05 November 2016 00:00
Orbit: 308 x 15868 km, 49.5° (Epoch: 26 October)

Date Brightness Start Highest point End Pass type
(mag) Time Alt. Az. Time Alt. Az. Time Alt. Az.
31 Oct 6.4 02:55:26 11° ENE 02:55:26 11° ENE 02:55:45 10° ENE visible
01 Nov 6.3 02:58:29 12° ENE 02:58:29 12° ENE 02:59:24 10° ENE visible
02 Nov 6.3 03:01:31 13° ENE 03:01:31 13° ENE 03:02:57 10° ENE visible
03 Nov 6.2 03:04:31 15° ENE 03:04:31 15° ENE 03:06:27 10° ENE visible
04 Nov 6.2 03:07:29 16° ENE 03:07:29 16° ENE 03:09:52 10° ENE visible
